• In Belarus
  • List of Countries
  • For 7 days
  • Water Temperature
  • Satellite Maps
  • Weather Map
  • Weather Widgets
  • user-avatar
    Login

    Hourly Weather Albany

    Today, 23 October, Monday

    Time Temperature Precipitation Wind Pressure Humidity
    00:00 +16°C° 0 mm 2 mps 755 mmHg 91%
    01:00 +16°C° 0 mm 1 mps 755 mmHg 92%
    02:00 +16°C° 0 mm 1 mps 755 mmHg 91%
    03:00 +15°C° 0 mm 1 mps 755 mmHg 92%
    04:00 +15°C° 0 mm 1 mps 755 mmHg 93%
    05:00 +15°C° 0 mm 1 mps 755 mmHg 94%
    06:00 +18°C° 0 mm 1 mps 755 mmHg 91%
    07:00 +18°C° 0 mm 2 mps 756 mmHg 87%
    08:00 +19°C° 0 mm 2 mps 756 mmHg 85%
    09:00 +20°C° 0 mm 2 mps 756 mmHg 82%
    10:00 +21°C° 0 mm 2 mps 756 mmHg 78%
    11:00 +21°C° 0 mm 2 mps 756 mmHg 75%
    12:00 +21°C° 0.1 mm 3 mps 756 mmHg 76%
    13:00 +21°C° 0.1 mm 3 mps 756 mmHg 76%
    14:00 +21°C° 0 mm 2 mps 756 mmHg 74%
    15:00 +21°C° 0.1 mm 2 mps 756 mmHg 78%
    16:00 +20°C° 0.1 mm 3 mps 756 mmHg 81%
    17:00 +19°C° 0.1 mm 3 mps 757 mmHg 84%
    18:00 +19°C° 0.1 mm 3 mps 757 mmHg 87%
    19:00 +18°C° 0.1 mm 3 mps 757 mmHg 91%
    20:00 +17°C° 0.1 mm 3 mps 758 mmHg 94%
    21:00 +17°C° 0.2 mm 2 mps 758 mmHg 95%
    22:00 +17°C° 0.2 mm 2 mps 758 mmHg 95%
    23:00 +16°C° 0.2 mm 2 mps 758 mmHg 96%

    Tomorrow, 24 October, Tuesday

    Time Temperature Precipitation Wind Pressure Humidity
    00:00 +16°C° 0.2 mm 3 mps 758 mmHg 96%
    01:00 +16°C° 0.2 mm 3 mps 758 mmHg 96%
    02:00 +14°C° 0.2 mm 3 mps 758 mmHg 96%
    03:00 +14°C° 0.1 mm 3 mps 758 mmHg 96%
    04:00 +14°C° 0.1 mm 4 mps 758 mmHg 95%
    05:00 +14°C° 0.1 mm 4 mps 758 mmHg 95%
    06:00 +14°C° 0 mm 4 mps 758 mmHg 90%
    07:00 +16°C° 0 mm 3 mps 758 mmHg 86%
    08:00 +17°C° 0 mm 3 mps 759 mmHg 82%
    09:00 +18°C° 0 mm 3 mps 759 mmHg 73%
    10:00 +19°C° 0 mm 3 mps 759 mmHg 65%
    11:00 +20°C° 0 mm 3 mps 759 mmHg 56%
    12:00 +20°C° 0 mm 3 mps 758 mmHg 55%
    13:00 +21°C° 0 mm 3 mps 758 mmHg 54%
    14:00 +21°C° 0 mm 3 mps 757 mmHg 52%
    15:00 +20°C° 0 mm 3 mps 757 mmHg 55%
    16:00 +20°C° 0 mm 3 mps 757 mmHg 58%
    17:00 +19°C° 0 mm 3 mps 757 mmHg 61%
    18:00 +18°C° 0 mm 3 mps 757 mmHg 67%
    19:00 +16°C° 0 mm 2 mps 758 mmHg 72%
    20:00 +15°C° 0 mm 2 mps 758 mmHg 78%
    21:00 +15°C° 0 mm 2 mps 758 mmHg 79%
    22:00 +14°C° 0 mm 3 mps 758 mmHg 81%
    23:00 +14°C° 0 mm 3 mps 758 mmHg 83%

    Day after tomorrow, 25 October, Wednesday

    Time Temperature Precipitation Wind Pressure Humidity
    00:00 +13°C° 0 mm 4 mps 758 mmHg 84%
    01:00 +13°C° 0 mm 4 mps 758 mmHg 86%
    02:00 +12°C° 0 mm 5 mps 757 mmHg 87%
    03:00 +12°C° 0 mm 5 mps 757 mmHg 87%
    04:00 +12°C° 0 mm 5 mps 757 mmHg 87%
    05:00 +12°C° 0 mm 5 mps 757 mmHg 87%
    06:00 +13°C° 0 mm 5 mps 757 mmHg 83%
    07:00 +15°C° 0 mm 5 mps 757 mmHg 79%
    08:00 +17°C° 0 mm 6 mps 757 mmHg 75%
    09:00 +19°C° 0.1 mm 6 mps 757 mmHg 71%
    10:00 +20°C° 0.1 mm 6 mps 757 mmHg 67%
    11:00 +21°C° 0.1 mm 6 mps 757 mmHg 63%
    12:00 +22°C° 0.1 mm 6 mps 757 mmHg 61%
    13:00 +22°C° 0.1 mm 6 mps 756 mmHg 58%
    14:00 +23°C° 0.1 mm 6 mps 756 mmHg 55%
    15:00 +22°C° 0 mm 5 mps 756 mmHg 59%
    16:00 +21°C° 0 mm 5 mps 756 mmHg 62%
    17:00 +21°C° 0 mm 5 mps 755 mmHg 66%
    18:00 +19°C° 0 mm 4 mps 756 mmHg 71%
    19:00 +18°C° 0 mm 4 mps 756 mmHg 77%
    20:00 +16°C° 0 mm 3 mps 756 mmHg 82%
    21:00 +15°C° 0 mm 4 mps 756 mmHg 83%
    22:00 +14°C° 0 mm 4 mps 756 mmHg 84%
    23:00 +14°C° 0 mm 5 mps 756 mmHg 85%

    26 October, Thursday

    Time Temperature Precipitation Wind Pressure Humidity
    00:00 +14°C° 0 mm 5 mps 755 mmHg 86%
    01:00 +13°C° 0 mm 5 mps 754 mmHg 88%
    02:00 +13°C° 0 mm 6 mps 753 mmHg 89%
    03:00 +13°C° 0 mm 6 mps 753 mmHg 89%
    04:00 +13°C° 0 mm 6 mps 752 mmHg 89%
    05:00 +13°C° 0 mm 6 mps 752 mmHg 89%
    06:00 +15°C° 0 mm 7 mps 752 mmHg 81%
    07:00 +16°C° 0 mm 8 mps 751 mmHg 74%
    08:00 +17°C° 0 mm 8 mps 751 mmHg 67%
    09:00 +18°C° 0.1 mm 9 mps 750 mmHg 64%
    10:00 +19°C° 0.1 mm 9 mps 750 mmHg 62%
    11:00 +19°C° 0.1 mm 9 mps 749 mmHg 59%
    12:00 +17°C° 1.2 mm 10 mps 749 mmHg 68%
    13:00 +14°C° 1.2 mm 10 mps 749 mmHg 77%
    14:00 +12°C° 1.2 mm 11 mps 749 mmHg 87%
    15:00 +12°C° 0.4 mm 10 mps 750 mmHg 83%
    16:00 +12°C° 0.4 mm 10 mps 750 mmHg 80%
    17:00 +12°C° 0.4 mm 9 mps 751 mmHg 77%
    18:00 +11°C° 0.1 mm 9 mps 752 mmHg 75%
    19:00 +11°C° 0.1 mm 8 mps 752 mmHg 74%
    20:00 +10°C° 0.1 mm 8 mps 753 mmHg 73%
    21:00 +10°C° 0.1 mm 7 mps 754 mmHg 74%
    22:00 +9°C° 0.1 mm 7 mps 754 mmHg 75%
    23:00 +9°C° 0.1 mm 6 mps 754 mmHg 76%

    27 October, Friday

    Time Temperature Precipitation Wind Pressure Humidity
    00:00 +9°C° 0.1 mm 6 mps 754 mmHg 77%
    01:00 +9°C° 0.1 mm 6 mps 754 mmHg 78%
    02:00 +9°C° 0.1 mm 6 mps 754 mmHg 79%
    03:00 +9°C° 0 mm 6 mps 754 mmHg 79%
    04:00 +9°C° 0 mm 6 mps 754 mmHg 79%
    05:00 +9°C° 0 mm 6 mps 754 mmHg 79%
    06:00 +10°C° 0.1 mm 7 mps 755 mmHg 75%
    07:00 +12°C° 0.1 mm 7 mps 755 mmHg 71%
    08:00 +14°C° 0.1 mm 7 mps 755 mmHg 67%
    09:00 +15°C° 0.1 mm 7 mps 755 mmHg 64%
    10:00 +15°C° 0.1 mm 8 mps 755 mmHg 62%
    11:00 +16°C° 0.1 mm 8 mps 755 mmHg 59%
    12:00 +16°C° 0.1 mm 8 mps 755 mmHg 60%
    13:00 +16°C° 0.1 mm 8 mps 754 mmHg 61%
    14:00 +16°C° 0.1 mm 8 mps 754 mmHg 62%
    15:00 +16°C° 0.1 mm 8 mps 754 mmHg 63%
    16:00 +16°C° 0.1 mm 9 mps 754 mmHg 64%
    17:00 +16°C° 0.1 mm 9 mps 754 mmHg 64%
    18:00 +15°C° 0 mm 9 mps 754 mmHg 67%
    19:00 +13°C° 0 mm 9 mps 754 mmHg 70%
    20:00 +13°C° 0 mm 9 mps 754 mmHg 73%
    21:00 +13°C° 0 mm 10 mps 754 mmHg 74%
    22:00 +13°C° 0 mm 10 mps 754 mmHg 74%
    23:00 +13°C° 0 mm 10 mps 754 mmHg 75%

    28 October, Saturday

    Time Temperature Precipitation Wind Pressure Humidity
    00:00 +13°C° 0.1 mm 10 mps 753 mmHg 74%
    01:00 +13°C° 0.1 mm 10 mps 753 mmHg 74%
    02:00 +14°C° 0.1 mm 10 mps 753 mmHg 73%
    03:00 +15°C° 0.1 mm 9 mps 753 mmHg 76%
    04:00 +15°C° 0.1 mm 9 mps 753 mmHg 78%
    05:00 +13°C° 0.1 mm 8 mps 753 mmHg 80%
    06:00 +15°C° 0.1 mm 8 mps 754 mmHg 79%
    07:00 +16°C° 0.1 mm 8 mps 754 mmHg 77%
    08:00 +16°C° 0.1 mm 8 mps 754 mmHg 75%
    09:00 +17°C° 0.1 mm 8 mps 754 mmHg 74%
    10:00 +17°C° 0.1 mm 8 mps 753 mmHg 72%
    11:00 +17°C° 0.1 mm 9 mps 753 mmHg 71%
    12:00 +18°C° 0 mm 9 mps 753 mmHg 66%
    13:00 +19°C° 0 mm 10 mps 752 mmHg 61%
    14:00 +21°C° 0 mm 11 mps 752 mmHg 56%
    15:00 +21°C° 0 mm 11 mps 752 mmHg 56%
    16:00 +19°C° 0 mm 11 mps 752 mmHg 57%
    17:00 +19°C° 0 mm 12 mps 752 mmHg 57%
    18:00 +18°C° 0.1 mm 12 mps 752 mmHg 62%
    19:00 +17°C° 0.1 mm 12 mps 753 mmHg 67%
    20:00 +15°C° 0.1 mm 12 mps 753 mmHg 72%
    21:00 +15°C° 0.1 mm 12 mps 754 mmHg 70%
    22:00 +14°C° 0.1 mm 12 mps 754 mmHg 69%
    23:00 +14°C° 0.1 mm 12 mps 755 mmHg 67%

    29 October, Sunday

    Time Temperature Precipitation Wind Pressure Humidity
    00:00 +13°C° 0 mm 11 mps 756 mmHg 66%
    01:00 +13°C° 0 mm 10 mps 756 mmHg 66%
    02:00 +12°C° 0 mm 9 mps 757 mmHg 65%
    03:00 +12°C° 0 mm 9 mps 757 mmHg 66%
    04:00 +11°C° 0 mm 8 mps 758 mmHg 67%
    05:00 +11°C° 0 mm 7 mps 758 mmHg 68%
    06:00 +12°C° 0 mm 7 mps 759 mmHg 66%
    07:00 +14°C° 0 mm 7 mps 759 mmHg 64%
    08:00 +14°C° 0 mm 7 mps 760 mmHg 62%
    09:00 +15°C° 0 mm 7 mps 760 mmHg 60%
    10:00 +16°C° 0 mm 7 mps 760 mmHg 58%
    11:00 +17°C° 0 mm 7 mps 760 mmHg 55%
    12:00 +18°C° 0 mm 7 mps 760 mmHg 54%
    13:00 +18°C° 0 mm 7 mps 760 mmHg 53%
    14:00 +20°C° 0 mm 7 mps 760 mmHg 51%
    15:00 +19°C° 0 mm 6 mps 760 mmHg 54%
    16:00 +19°C° 0 mm 6 mps 760 mmHg 56%
    17:00 +19°C° 0 mm 6 mps 760 mmHg 58%
    18:00 +16°C° 0 mm 5 mps 761 mmHg 64%
    19:00 +15°C° 0 mm 5 mps 761 mmHg 69%
    20:00 +13°C° 0 mm 5 mps 761 mmHg 75%
    21:00 +13°C° 0 mm 5 mps 761 mmHg 77%
    22:00 +12°C° 0 mm 5 mps 761 mmHg 79%
    23:00 +12°C° 0 mm 5 mps 761 mmHg 82%
    Show more